When you browse on this site, cookies collect data to enhance your experience and personalize the content and advertising you see.
Visit our Privacy Policy to learn more. By continuing to use the site, you agree to this use of cookies and data.
  • Em Portugal
  • Lista de países
  • Para 7 dias
  • Temperatura da água
  • Mapas de satélite
  • Mapa do tempo
  • Widgets de tempo
  • user-avatar
    Iniciar Sessão

    Previsão horária em Sergincy

    Hoje, 26 Abril, Sexta-feira

    Tempo Temperatura Precipitação Vento Pressão Humidade
    00:00 0°C° 0 mm 1 m/s 748 mmHg 82%
    01:00 0°C° 0 mm 1 m/s 749 mmHg 83%
    02:00 0°C° 0 mm 1 m/s 748 mmHg 82%
    03:00 0°C° 0 mm 1 m/s 748 mmHg 82%
    04:00 0°C° 0 mm 1 m/s 748 mmHg 81%
    05:00 +1°C° 0 mm 1 m/s 748 mmHg 76%
    06:00 +1°C° 0 mm 2 m/s 748 mmHg 71%
    07:00 +2°C° 0 mm 2 m/s 747 mmHg 66%
    08:00 +2°C° 0.3 mm 3 m/s 747 mmHg 63%
    09:00 +4°C° 0.3 mm 3 m/s 747 mmHg 60%
    10:00 +5°C° 0.3 mm 4 m/s 747 mmHg 57%
    11:00 +5°C° 0.2 mm 4 m/s 747 mmHg 55%
    12:00 +6°C° 0.2 mm 4 m/s 746 mmHg 52%
    13:00 +6°C° 0.2 mm 4 m/s 746 mmHg 50%
    14:00 +6°C° 0.1 mm 4 m/s 746 mmHg 49%
    15:00 +6°C° 0.1 mm 4 m/s 746 mmHg 49%
    16:00 +5°C° 0.1 mm 5 m/s 746 mmHg 49%
    17:00 +4°C° 0 mm 4 m/s 746 mmHg 52%
    18:00 +4°C° 0 mm 3 m/s 746 mmHg 56%
    19:00 +4°C° 0 mm 2 m/s 746 mmHg 59%
    20:00 +2°C° 0 mm 2 m/s 746 mmHg 65%
    21:00 +2°C° 0 mm 1 m/s 746 mmHg 70%
    22:00 +1°C° 0 mm 1 m/s 747 mmHg 75%
    23:00 0°C° 0 mm 1 m/s 747 mmHg 77%

    Amanhã, 27 Abril, Sábado

    Tempo Temperatura Precipitação Vento Pressão Humidade
    00:00 0°C° 0 mm 1 m/s 747 mmHg 79%
    01:00 -2°C° 0 mm 0 m/s 746 mmHg 81%
    02:00 -2°C° 0 mm 0 m/s 746 mmHg 81%
    03:00 -1°C° 0 mm 1 m/s 746 mmHg 81%
    04:00 -1°C° 0 mm 1 m/s 746 mmHg 81%
    05:00 0°C° 0 mm 1 m/s 745 mmHg 77%
    06:00 -1°C° 0 mm 2 m/s 745 mmHg 73%
    07:00 +1°C° 0 mm 2 m/s 744 mmHg 68%
    08:00 +1°C° 0.6 mm 3 m/s 744 mmHg 68%
    09:00 +1°C° 0.6 mm 4 m/s 743 mmHg 69%
    10:00 +3°C° 0.6 mm 4 m/s 742 mmHg 69%
    11:00 +4°C° 1.1 mm 4 m/s 741 mmHg 69%
    12:00 +5°C° 1.1 mm 4 m/s 740 mmHg 69%
    13:00 +6°C° 1.1 mm 4 m/s 740 mmHg 69%
    14:00 +7°C° 0.3 mm 4 m/s 739 mmHg 66%
    15:00 +8°C° 0.3 mm 5 m/s 739 mmHg 62%
    16:00 +9°C° 0.3 mm 5 m/s 738 mmHg 59%
    17:00 +8°C° 0.4 mm 4 m/s 738 mmHg 67%
    18:00 +7°C° 0.4 mm 4 m/s 738 mmHg 74%
    19:00 +7°C° 0.4 mm 3 m/s 738 mmHg 81%
    20:00 +5°C° 1 mm 3 m/s 738 mmHg 86%
    21:00 +5°C° 1 mm 2 m/s 738 mmHg 92%
    22:00 +5°C° 1 mm 1 m/s 738 mmHg 97%
    23:00 +3°C° 1 mm 2 m/s 737 mmHg 96%

    Depois de amanhã, 28 Abril, Domingo

    Tempo Temperatura Precipitação Vento Pressão Humidade
    00:00 +2°C° 1 mm 2 m/s 737 mmHg 94%
    01:00 +1°C° 1 mm 2 m/s 737 mmHg 93%
    02:00 +1°C° 1.3 mm 2 m/s 737 mmHg 93%
    03:00 -1°C° 1.3 mm 2 m/s 737 mmHg 94%
    04:00 -2°C° 1.3 mm 2 m/s 736 mmHg 95%
    05:00 -2°C° 0.4 mm 3 m/s 736 mmHg 94%
    06:00 -1°C° 0.4 mm 3 m/s 736 mmHg 93%
    07:00 -1°C° 0.4 mm 3 m/s 737 mmHg 92%
    08:00 -2°C° 0.2 mm 4 m/s 737 mmHg 90%
    09:00 -1°C° 0.2 mm 4 m/s 738 mmHg 87%
    10:00 -1°C° 0.2 mm 4 m/s 738 mmHg 84%
    11:00 0°C° 0.1 mm 4 m/s 739 mmHg 81%
    12:00 +1°C° 0.1 mm 4 m/s 739 mmHg 77%
    13:00 +1°C° 0.1 mm 4 m/s 740 mmHg 74%
    14:00 +1°C° 0.1 mm 4 m/s 740 mmHg 71%
    15:00 +3°C° 0.1 mm 4 m/s 740 mmHg 69%
    16:00 +3°C° 0.1 mm 4 m/s 741 mmHg 67%
    17:00 +1°C° 0.1 mm 4 m/s 741 mmHg 69%
    18:00 +1°C° 0.1 mm 3 m/s 741 mmHg 72%
    19:00 0°C° 0.1 mm 3 m/s 742 mmHg 75%
    20:00 -1°C° 0 mm 3 m/s 742 mmHg 79%
    21:00 -2°C° 0 mm 2 m/s 743 mmHg 82%
    22:00 -3°C° 0 mm 2 m/s 743 mmHg 86%
    23:00 -3°C° 0 mm 2 m/s 743 mmHg 87%

    29 Abril, Segunda-feira

    Tempo Temperatura Precipitação Vento Pressão Humidade
    00:00 -4°C° 0 mm 2 m/s 744 mmHg 88%
    01:00 -5°C° 0 mm 2 m/s 744 mmHg 89%
    02:00 -5°C° 0 mm 2 m/s 744 mmHg 90%
    03:00 -5°C° 0 mm 2 m/s 745 mmHg 91%
    04:00 -6°C° 0 mm 2 m/s 745 mmHg 92%
    05:00 -5°C° 0 mm 2 m/s 746 mmHg 89%
    06:00 -4°C° 0 mm 2 m/s 746 mmHg 86%
    07:00 -4°C° 0 mm 2 m/s 747 mmHg 84%
    08:00 -3°C° 0.1 mm 2 m/s 747 mmHg 80%
    09:00 -2°C° 0.1 mm 3 m/s 747 mmHg 76%
    10:00 -1°C° 0.1 mm 3 m/s 747 mmHg 72%
    11:00 0°C° 0.2 mm 3 m/s 747 mmHg 68%
    12:00 +1°C° 0.2 mm 3 m/s 747 mmHg 63%
    13:00 +1°C° 0.2 mm 3 m/s 747 mmHg 59%
    14:00 +2°C° 0.2 mm 3 m/s 747 mmHg 58%
    15:00 +2°C° 0.2 mm 3 m/s 747 mmHg 58%
    16:00 +2°C° 0.2 mm 3 m/s 747 mmHg 57%
    17:00 +1°C° 0.1 mm 3 m/s 747 mmHg 61%
    18:00 0°C° 0.1 mm 3 m/s 747 mmHg 64%
    19:00 -1°C° 0.1 mm 2 m/s 747 mmHg 68%
    20:00 -2°C° 0 mm 2 m/s 748 mmHg 72%
    21:00 -3°C° 0 mm 2 m/s 748 mmHg 76%
    22:00 -4°C° 0 mm 2 m/s 748 mmHg 80%
    23:00 -5°C° 0 mm 2 m/s 748 mmHg 81%

    30 Abril, Terça-feira

    Tempo Temperatura Precipitação Vento Pressão Humidade
    00:00 -5°C° 0 mm 2 m/s 747 mmHg 83%
    01:00 -3°C° 0 mm 1 m/s 747 mmHg 84%
    02:00 -3°C° 0 mm 1 m/s 747 mmHg 84%
    03:00 -3°C° 0 mm 1 m/s 747 mmHg 85%
    04:00 -4°C° 0 mm 1 m/s 747 mmHg 85%
    05:00 -2°C° 0 mm 1 m/s 747 mmHg 80%
    06:00 -3°C° 0 mm 2 m/s 747 mmHg 75%
    07:00 -2°C° 0 mm 2 m/s 747 mmHg 70%
    08:00 -1°C° 0 mm 2 m/s 747 mmHg 64%
    09:00 0°C° 0 mm 3 m/s 747 mmHg 58%
    10:00 +1°C° 0 mm 3 m/s 746 mmHg 53%
    11:00 +1°C° 0 mm 3 m/s 746 mmHg 51%
    12:00 +1°C° 0 mm 3 m/s 746 mmHg 50%
    13:00 +1°C° 0 mm 4 m/s 745 mmHg 49%
    14:00 +1°C° 0 mm 4 m/s 745 mmHg 50%
    15:00 +2°C° 0 mm 3 m/s 745 mmHg 51%
    16:00 +2°C° 0 mm 3 m/s 745 mmHg 52%
    17:00 +1°C° 0 mm 3 m/s 745 mmHg 56%
    18:00 +1°C° 0 mm 3 m/s 745 mmHg 60%
    19:00 +1°C° 0 mm 2 m/s 745 mmHg 64%
    20:00 +1°C° 0 mm 2 m/s 744 mmHg 67%
    21:00 -1°C° 0 mm 2 m/s 744 mmHg 70%
    22:00 -2°C° 0 mm 3 m/s 744 mmHg 72%
    23:00 -2°C° 0 mm 3 m/s 744 mmHg 74%

    1 Maio, Quarta-feira

    Tempo Temperatura Precipitação Vento Pressão Humidade
    00:00 -2°C° 0 mm 3 m/s 744 mmHg 75%
    01:00 -2°C° 0 mm 3 m/s 744 mmHg 77%
    02:00 -4°C° 0 mm 3 m/s 744 mmHg 79%
    03:00 -4°C° 0 mm 3 m/s 744 mmHg 81%
    04:00 -3°C° 0 mm 2 m/s 743 mmHg 83%
    05:00 -2°C° 0 mm 2 m/s 743 mmHg 79%
    06:00 -1°C° 0 mm 3 m/s 743 mmHg 75%
    07:00 0°C° 0 mm 3 m/s 743 mmHg 71%
    08:00 +1°C° 0 mm 3 m/s 743 mmHg 69%
    09:00 +2°C° 0 mm 3 m/s 743 mmHg 68%
    10:00 +3°C° 0 mm 4 m/s 743 mmHg 66%
    11:00 +4°C° 0.1 mm 4 m/s 743 mmHg 61%
    12:00 +5°C° 0.1 mm 4 m/s 743 mmHg 57%
    13:00 +6°C° 0.1 mm 4 m/s 743 mmHg 52%
    14:00 +6°C° 0 mm 4 m/s 744 mmHg 52%
    15:00 +6°C° 0 mm 4 m/s 744 mmHg 53%
    16:00 +7°C° 0 mm 4 m/s 744 mmHg 53%
    17:00 +7°C° 0 mm 3 m/s 744 mmHg 60%
    18:00 +5°C° 0 mm 3 m/s 744 mmHg 66%
    19:00 +5°C° 0 mm 2 m/s 744 mmHg 72%
    20:00 +4°C° 0 mm 2 m/s 744 mmHg 76%
    21:00 +3°C° 0 mm 2 m/s 744 mmHg 81%
    22:00 +2°C° 0 mm 2 m/s 744 mmHg 86%
    23:00 +1°C° 0 mm 3 m/s 744 mmHg 86%
    Mostrar mais